"read_dt","SO2 (ppb)","flags","PMT voltage (V)","lamp voltage (V)","lamp intensity (Hz)","internal temp (C)","react chamber temp (C)","sample flow (l/min)","pres (mmHg)","SO2 bkg (ppb)","SO2 coefficient"
2014-04-10 00:00:00,2955E-2,5C000400,-0724,1003,10484,027.8,045.3,0.147,745.1,01.17,0.508
2014-04-10 00:01:00,2994E-2,5C000400,-0724,1003,10517,027.8,045.3,0.147,745.1,01.17,0.508
2014-04-10 00:02:00,2989E-2,5C000400,-0724,1003,10477,027.8,045.3,0.147,745.1,01.17,0.508
2014-04-10 00:03:00,2995E-2,5C000400,-0724,1002,10419,027.8,045.3,0.147,745.1,01.17,0.508
2014-04-10 00:04:00,2989E-2,5C000400,-0724,1003,10483,027.8,045.3,0.147,745.2,01.17,0.508
2014-04-10 00:05:00,2991E-2,5C000400,-0724,1002,10439,027.8,045.3,0.147,745.1,01.17,0.508
2014-04-10 00:06:00,2967E-2,5C000400,-0724,1003,10404,027.8,045.3,0.147,745.1,01.17,0.508
2014-04-10 00:07:00,2984E-2,5C000400,-0724,1004,10329,027.8,045.3,0.147,745.1,01.17,0.508
2014-04-10 00:08:00,2982E-2,5C000400,-0724,1004,10500,027.8,045.3,0.147,745.1,01.17,0.508
2014-04-10 00:09:00,3020E-2,5C000400,-0724,1003,10234,027.8,045.3,0.147,745.0,01.17,0.508
2014-04-10 00:10:00,2965E-2,5C000400,-0724,1003,10449,027.8,045.3,0.147,745.1,01.17,0.508
2014-04-10 00:11:00,3018E-2,5C000400,-0724,1003,10383,027.8,045.3,0.147,745.2,01.17,0.508
2014-04-10 00:12:00,2986E-2,5C000400,-0724,1003,10377,027.8,045.3,0.147,745.2,01.17,0.508
2014-04-10 00:13:00,2966E-2,5C000400,-0724,1005,10417,027.8,045.3,0.147,745.1,01.17,0.508
2014-04-10 00:14:00,2994E-2,5C000400,-0724,1003,10482,027.8,045.3,0.147,745.2,01.17,0.508
2014-04-10 00:15:00,2989E-2,5C000400,-0724,1003,10467,027.8,045.3,0.147,745.2,01.17,0.508
2014-04-10 00:16:00,3045E-2,5C000400,-0724,1003,10481,027.8,045.3,0.147,745.2,01.17,0.508
2014-04-10 00:17:00,3002E-2,5C000400,-0724,1003,10441,027.7,045.3,0.147,745.2,01.17,0.508
2014-04-10 00:18:00,3010E-2,5C000400,-0724,1004,10248,027.8,045.3,0.147,745.2,01.17,0.508
2014-04-10 00:19:00,3045E-2,5C000400,-0724,1004,10359,027.7,045.3,0.147,745.2,01.17,0.508
2014-04-10 00:20:00,3010E-2,5C000400,-0724,1004,10578,027.7,045.3,0.147,745.2,01.17,0.508
2014-04-10 00:21:00,3026E-2,5C000400,-0724,1004,10560,027.7,045.3,0.147,745.2,01.17,0.508
2014-04-10 00:22:00,3050E-2,5C000400,-0724,1004,10337,027.7,045.3,0.147,745.3,01.17,0.508
2014-04-10 00:23:00,3024E-2,5C000400,-0724,1004,10451,027.7,045.3,0.147,745.3,01.17,0.508
2014-04-10 00:24:00,3063E-2,5C000400,-0724,1003,10562,027.7,045.3,0.147,745.3,01.17,0.508
2014-04-10 00:25:00,3033E-2,5C000400,-0724,1005,10412,027.7,045.3,0.147,745.2,01.17,0.508
2014-04-10 00:26:00,2978E-2,5C000400,-0724,1004,10529,027.7,045.3,0.147,745.2,01.17,0.508
2014-04-10 00:27:00,3007E-2,5C000400,-0724,1003,10462,027.7,045.3,0.147,745.2,01.17,0.508
2014-04-10 00:28:00,3000E-2,5C000400,-0724,1004,10304,027.7,045.3,0.147,745.2,01.17,0.508
2014-04-10 00:29:00,3026E-2,5C000400,-0724,1005,10469,027.7,045.3,0.148,745.2,01.17,0.508
2014-04-10 00:30:00,3005E-2,5C000400,-0724,1003,10445,027.7,045.3,0.148,745.2,01.17,0.508
2014-04-10 00:31:00,3008E-2,5C000400,-0724,1005,10498,027.6,045.3,0.148,745.2,01.17,0.508
2014-04-10 00:32:00,3015E-2,5C000400,-0724,1004,10565,027.7,045.3,0.147,745.2,01.17,0.508
2014-04-10 00:33:00,2998E-2,5C000400,-0724,1004,10449,027.6,045.3,0.148,745.2,01.17,0.508
2014-04-10 00:34:00,3009E-2,5C000400,-0724,1003,10497,027.7,045.3,0.148,745.2,01.17,0.508
2014-04-10 00:35:00,3003E-2,5C000400,-0724,0995,10318,027.7,045.3,0.148,745.2,01.17,0.508
2014-04-10 00:36:00,3031E-2,5C000400,-0724,1007,10153,027.6,045.3,0.148,745.3,01.17,0.508
2014-04-10 00:37:00,3080E-2,5C000400,-0724,1008,10607,027.6,045.3,0.148,745.2,01.17,0.508
2014-04-10 00:38:00,3080E-2,5C000400,-0724,1009,10541,027.6,045.3,0.148,745.2,01.17,0.508
2014-04-10 00:39:00,3086E-2,5C000400,-0724,1008,10517,027.6,045.3,0.148,745.2,01.17,0.508
2014-04-10 00:40:00,3050E-2,5C000400,-0724,1009,10471,027.6,045.3,0.148,745.2,01.17,0.508
2014-04-10 00:41:00,3064E-2,5C000400,-0724,1009,10387,027.6,045.3,0.148,745.3,01.17,0.508
2014-04-10 00:42:00,3028E-2,5C000400,-0724,1009,10515,027.6,045.3,0.148,745.2,01.17,0.508
2014-04-10 00:43:00,3070E-2,5C000400,-0724,1009,10462,027.6,045.3,0.148,745.2,01.17,0.508
2014-04-10 00:44:00,3040E-2,5C000400,-0724,1008,10505,027.6,045.3,0.148,745.2,01.17,0.508
2014-04-10 00:45:00,3019E-2,5C000400,-0724,1010,10398,027.6,045.3,0.148,745.2,01.17,0.508
2014-04-10 00:46:00,3063E-2,5C000400,-0724,1008,10409,027.6,045.3,0.148,745.2,01.17,0.508
2014-04-10 00:47:00,2981E-2,5C000400,-0724,1008,10491,027.6,045.3,0.148,745.2,01.17,0.508
2014-04-10 00:48:00,3037E-2,5C000400,-0724,1009,10493,027.6,045.3,0.148,745.2,01.17,0.508
2014-04-10 00:49:00,3056E-2,5C000400,-0724,1008,10458,027.6,045.3,0.148,745.1,01.17,0.508
2014-04-10 00:50:00,3042E-2,5C000400,-0724,1008,10471,027.6,045.3,0.148,745.2,01.17,0.508
2014-04-10 00:51:00,3080E-2,5C000400,-0724,1008,10455,027.6,045.3,0.148,745.2,01.17,0.508
2014-04-10 00:52:00,3035E-2,5C000400,-0724,1008,10555,027.5,045.3,0.148,745.2,01.17,0.508
2014-04-10 00:53:00,3024E-2,5C000400,-0724,1008,10473,027.5,045.3,0.148,745.1,01.17,0.508
2014-04-10 00:54:00,3073E-2,5C000400,-0724,1009,10433,027.5,045.3,0.148,745.1,01.17,0.508
2014-04-10 00:55:00,3057E-2,5C000400,-0724,1007,10487,027.5,045.3,0.148,745.1,01.17,0.508
2014-04-10 00:56:00,3057E-2,5C000400,-0724,1008,10315,027.5,045.3,0.148,745.1,01.17,0.508
2014-04-10 00:57:00,3121E-2,5C000400,-0724,1008,10466,027.5,045.3,0.148,745.1,01.17,0.508
2014-04-10 00:58:00,3109E-2,5C000400,-0724,1007,10411,027.5,045.3,0.148,745.1,01.17,0.508
2014-04-10 00:59:00,3079E-2,5C000400,-0724,1008,10411,027.5,045.3,0.148,745.0,01.17,0.508
2014-04-10 01:00:00,3068E-2,5C000400,-0724,1007,10416,027.5,045.3,0.148,745.1,01.17,0.508
2014-04-10 01:01:00,3064E-2,5C000400,-0724,1008,10488,027.5,045.3,0.148,745.1,01.17,0.508
2014-04-10 01:02:00,3058E-2,5C000400,-0724,1007,10240,027.5,045.3,0.148,745.1,01.17,0.508
2014-04-10 01:03:00,3020E-2,5C000400,-0724,1007,10307,027.5,045.3,0.148,745.1,01.17,0.508
2014-04-10 01:04:00,3087E-2,5C000400,-0724,1007,10384,027.5,045.3,0.148,745.0,01.17,0.508
2014-04-10 01:05:00,3059E-2,5C000400,-0724,1008,10613,027.5,045.3,0.148,745.0,01.17,0.508
2014-04-10 01:06:00,3075E-2,5C000400,-0724,1008,10549,027.5,045.3,0.148,745.1,01.17,0.508
2014-04-10 01:07:00,3049E-2,5C000400,-0724,1006,10435,027.5,045.3,0.148,745.1,01.17,0.508
2014-04-10 01:08:00,3042E-2,5C000400,-0724,1007,10320,027.5,045.3,0.148,745.1,01.17,0.508
2014-04-10 01:09:00,3058E-2,5C000400,-0724,1008,10539,027.5,045.3,0.149,745.1,01.17,0.508
2014-04-10 01:10:00,3059E-2,5C000400,-0724,1008,10519,027.5,045.3,0.149,745.1,01.17,0.508
2014-04-10 01:11:00,3007E-2,5C000400,-0724,1007,10561,027.4,045.3,0.148,745.1,01.17,0.508
2014-04-10 01:12:00,3095E-2,5C000400,-0724,1006,10432,027.4,045.3,0.149,745.1,01.17,0.508
2014-04-10 01:13:00,3063E-2,5C000400,-0724,1007,10386,027.4,045.3,0.149,745.1,01.17,0.508
2014-04-10 01:14:00,3052E-2,5C000400,-0724,1006,10531,027.4,045.3,0.149,745.1,01.17,0.508
2014-04-10 01:15:00,3026E-2,5C000400,-0724,1007,10435,027.4,045.3,0.148,745.1,01.17,0.508
2014-04-10 01:16:00,3040E-2,5C000400,-0724,1007,10425,027.4,045.3,0.149,745.2,01.17,0.508
2014-04-10 01:17:00,3050E-2,5C000400,-0724,1006,10401,027.4,045.3,0.149,745.2,01.17,0.508
2014-04-10 01:18:00,3013E-2,5C000400,-0724,1005,10416,027.4,045.3,0.149,745.3,01.17,0.508
2014-04-10 01:19:00,3044E-2,5C000400,-0724,1004,10511,027.4,045.3,0.149,745.3,01.17,0.508
2014-04-10 01:20:00,3039E-2,5C000400,-0724,1004,10511,027.5,045.3,0.149,745.3,01.17,0.508
2014-04-10 01:21:00,3044E-2,5C000400,-0724,1003,10296,027.4,045.3,0.149,745.3,01.17,0.508
2014-04-10 01:22:00,3026E-2,5C000400,-0724,1003,10549,027.5,045.3,0.149,745.3,01.17,0.508
2014-04-10 01:23:00,3037E-2,5C000400,-0724,1003,10544,027.5,045.3,0.149,745.3,01.17,0.508
2014-04-10 01:24:00,3026E-2,5C000400,-0724,1001,10611,027.5,045.3,0.149,745.3,01.17,0.508
2014-04-10 01:25:00,3057E-2,5C000400,-0724,1001,10644,027.4,045.3,0.149,745.4,01.17,0.508
2014-04-10 01:26:00,2998E-2,5C000400,-0724,1001,10628,027.4,045.3,0.148,745.4,01.17,0.508
2014-04-10 01:27:00,3023E-2,5C000400,-0724,1001,10520,027.5,045.3,0.148,745.4,01.17,0.508
2014-04-10 01:28:00,3052E-2,5C000400,-0724,0999,10566,027.4,045.3,0.149,745.4,01.17,0.508
2014-04-10 01:29:00,3037E-2,5C000400,-0724,1000,10351,027.4,045.3,0.148,745.4,01.17,0.508
2014-04-10 01:30:00,3011E-2,5C000400,-0724,1000,10545,027.4,045.3,0.148,745.4,01.17,0.508
2014-04-10 01:31:00,3022E-2,5C000400,-0724,0999,10613,027.4,045.3,0.149,745.4,01.17,0.508
2014-04-10 01:32:00,3020E-2,5C000400,-0724,1000,10617,027.5,045.3,0.149,745.4,01.17,0.508
2014-04-10 01:33:00,2997E-2,5C000400,-0724,0998,10623,027.4,045.3,0.148,745.3,01.17,0.508
2014-04-10 01:34:00,2949E-2,5C000400,-0724,0998,10473,027.4,045.3,0.149,745.3,01.17,0.508
2014-04-10 01:35:00,3024E-2,5C000400,-0724,0998,10507,027.4,045.3,0.148,745.3,01.17,0.508
2014-04-10 01:36:00,3005E-2,5C000400,-0724,0997,10555,027.4,045.3,0.149,745.3,01.17,0.508
2014-04-10 01:37:00,2998E-2,5C000400,-0724,0998,10594,027.4,045.3,0.149,745.3,01.17,0.508
2014-04-10 01:38:00,2960E-2,5C000400,-0724,0998,10528,027.4,045.3,0.149,745.3,01.17,0.508
2014-04-10 01:39:00,2946E-2,5C000400,-0724,0997,10652,027.4,045.3,0.149,745.3,01.17,0.508
2014-04-10 01:40:00,2961E-2,5C000400,-0724,0998,10408,027.4,045.3,0.149,745.3,01.17,0.508
2014-04-10 01:41:00,3060E-2,5C000400,-0724,0998,10645,027.4,045.3,0.149,745.2,01.17,0.508
2014-04-10 01:42:00,3022E-2,5C000400,-0724,0997,10639,027.4,045.3,0.149,745.2,01.17,0.508
2014-04-10 01:43:00,3017E-2,5C000400,-0724,0996,10561,027.4,045.3,0.149,745.3,01.17,0.508
2014-04-10 01:44:00,2995E-2,5C000400,-0724,0997,10602,027.4,045.3,0.149,745.2,01.17,0.508
2014-04-10 01:45:00,2989E-2,5C000400,-0724,0997,10602,027.4,045.3,0.149,745.2,01.17,0.508
2014-04-10 01:46:00,2989E-2,5C000400,-0724,0997,10648,027.4,045.3,0.149,745.2,01.17,0.508
2014-04-10 01:47:00,2984E-2,5C000400,-0724,0996,10494,027.4,045.3,0.149,745.2,01.17,0.508
2014-04-10 01:48:00,3022E-2,5C000400,-0724,0997,10649,027.4,045.3,0.149,745.2,01.17,0.508
2014-04-10 01:49:00,2984E-2,5C000400,-0724,0996,10560,027.4,045.3,0.149,745.2,01.17,0.508
2014-04-10 01:50:00,2990E-2,5C000400,-0724,0996,10581,027.4,045.3,0.149,745.1,01.17,0.508
2014-04-10 01:51:00,2978E-2,5C000400,-0724,0996,10546,027.4,045.3,0.149,745.2,01.17,0.508
2014-04-10 01:52:00,3010E-2,5C000400,-0724,0997,10606,027.4,045.3,0.149,745.2,01.17,0.508
2014-04-10 01:53:00,2991E-2,5C000400,-0724,0995,10484,027.4,045.3,0.149,745.2,01.17,0.508
2014-04-10 01:54:00,2974E-2,5C000400,-0724,0996,10692,027.4,045.3,0.149,745.2,01.17,0.508
2014-04-10 01:55:00,2965E-2,5C000400,-0724,0996,10451,027.4,045.3,0.149,745.1,01.17,0.508
2014-04-10 01:56:00,3024E-2,5C000400,-0724,0994,10607,027.4,045.3,0.149,745.2,01.17,0.508
2014-04-10 01:57:00,3003E-2,5C000400,-0724,0996,10503,027.4,045.3,0.149,745.2,01.17,0.508
2014-04-10 01:58:00,2994E-2,5C000400,-0724,0995,10647,027.4,045.3,0.149,745.1,01.17,0.508
2014-04-10 01:59:00,3019E-2,5C000400,-0724,0994,10657,027.4,045.3,0.149,745.1,01.17,0.508
2014-04-10 02:00:00,3005E-2,5C000400,-0724,0994,10538,027.4,045.3,0.149,745.1,01.17,0.508
2014-04-10 02:01:00,3021E-2,5C000400,-0724,0994,10514,027.4,045.3,0.149,745.1,01.17,0.508
2014-04-10 02:02:00,2969E-2,5C000400,-0724,0994,10565,027.4,045.3,0.149,745.1,01.17,0.508
2014-04-10 02:03:00,2976E-2,5C000400,-0724,0994,10562,027.4,045.3,0.149,745.1,01.17,0.508
2014-04-10 02:04:00,2999E-2,5C000400,-0724,0995,10606,027.5,045.3,0.149,745.1,01.17,0.508
2014-04-10 02:05:00,2981E-2,5C000400,-0724,0994,10420,027.4,045.3,0.149,745.1,01.17,0.508
2014-04-10 02:06:00,3006E-2,5C000400,-0724,0995,10614,027.4,045.3,0.149,745.1,01.17,0.508
2014-04-10 02:07:00,2994E-2,5C000400,-0724,0995,10528,027.4,045.3,0.149,745.1,01.17,0.508
2014-04-10 02:08:00,3001E-2,5C000400,-0724,0994,10544,027.4,045.3,0.149,745.1,01.17,0.508
2014-04-10 02:09:00,2937E-2,5C000400,-0724,0995,10645,027.4,045.3,0.149,745.1,01.17,0.508
2014-04-10 02:10:00,2963E-2,5C000400,-0724,0994,10605,027.4,045.3,0.149,745.0,01.17,0.508
2014-04-10 02:11:00,3019E-2,5C000400,-0724,0994,10626,027.4,045.3,0.149,745.0,01.17,0.508
2014-04-10 02:12:00,3001E-2,5C000400,-0724,0994,10557,027.4,045.3,0.149,745.1,01.17,0.508
2014-04-10 02:13:00,2996E-2,5C000400,-0724,0993,10549,027.4,045.3,0.149,745.1,01.17,0.508
2014-04-10 02:14:00,2977E-2,5C000400,-0724,0993,10635,027.4,045.3,0.149,745.1,01.17,0.508
2014-04-10 02:15:00,2992E-2,5C000400,-0724,0992,10522,027.4,045.3,0.149,745.0,01.17,0.508
2014-04-10 02:16:00,2987E-2,5C000400,-0724,0993,10584,027.4,045.3,0.149,745.0,01.17,0.508
2014-04-10 02:17:00,2983E-2,5C000400,-0724,0994,10609,027.4,045.3,0.149,745.0,01.17,0.508
2014-04-10 02:18:00,3003E-2,5C000400,-0724,0994,10552,027.4,045.3,0.149,745.1,01.17,0.508
2014-04-10 02:19:00,2951E-2,5C000400,-0724,0993,10608,027.4,045.3,0.149,745.0,01.17,0.508
2014-04-10 02:20:00,3006E-2,5C000400,-0724,0993,10382,027.4,045.3,0.149,745.0,01.17,0.508
2014-04-10 02:21:00,2962E-2,5C000400,-0724,0993,10694,027.4,045.3,0.149,745.1,01.17,0.508
2014-04-10 02:22:00,3004E-2,5C000400,-0724,0994,10618,027.4,045.3,0.149,745.1,01.17,0.508
2014-04-10 02:23:00,2980E-2,5C000400,-0724,0993,10617,027.4,045.3,0.149,745.0,01.17,0.508
2014-04-10 02:24:00,2971E-2,5C000400,-0724,0992,10516,027.4,045.3,0.149,745.0,01.17,0.508
2014-04-10 02:25:00,2999E-2,5C000400,-0724,0992,10644,027.4,045.3,0.149,745.0,01.17,0.508
2014-04-10 02:26:00,2949E-2,5C000400,-0724,0993,10577,027.4,045.3,0.149,745.0,01.17,0.508
2014-04-10 02:27:00,2982E-2,5C000400,-0724,0993,10749,027.4,045.3,0.149,745.0,01.17,0.508
2014-04-10 02:28:00,2978E-2,5C000400,-0724,0993,10580,027.4,045.3,0.149,745.0,01.17,0.508
2014-04-10 02:29:00,2947E-2,5C000400,-0724,0992,10554,027.4,045.3,0.149,745.0,01.17,0.508
2014-04-10 02:30:00,2977E-2,5C000400,-0724,0992,10589,027.4,045.3,0.149,745.0,01.17,0.508
2014-04-10 02:31:00,2963E-2,5C000400,-0724,0993,10634,027.4,045.3,0.149,745.0,01.17,0.508
2014-04-10 02:32:00,2997E-2,5C000400,-0724,0992,10220,027.4,045.3,0.149,745.0,01.17,0.508
2014-04-10 02:33:00,3014E-2,5C000400,-0724,0994,10598,027.4,045.3,0.149,744.9,01.17,0.508
2014-04-10 02:34:00,3022E-2,5C000400,-0724,0993,10626,027.4,045.3,0.149,745.0,01.17,0.508
2014-04-10 02:35:00,2949E-2,5C000400,-0724,0992,10545,027.4,045.3,0.149,745.0,01.17,0.508
2014-04-10 02:36:00,2953E-2,5C000400,-0724,0992,10524,027.4,045.3,0.149,744.9,01.17,0.508
2014-04-10 02:37:00,2960E-2,5C000400,-0724,0993,10569,027.4,045.3,0.149,745.0,01.17,0.508
2014-04-10 02:38:00,2978E-2,5C000400,-0724,0992,10609,027.4,045.3,0.149,745.0,01.17,0.508
2014-04-10 02:39:00,2988E-2,5C000400,-0724,0992,10642,027.4,045.3,0.149,744.9,01.17,0.508
2014-04-10 02:40:00,2968E-2,5C000400,-0724,0992,10571,027.4,045.3,0.149,745.0,01.17,0.508
2014-04-10 02:41:00,2996E-2,5C000400,-0724,0992,10580,027.4,045.3,0.149,745.0,01.17,0.508
2014-04-10 02:42:00,3028E-2,5C000400,-0724,0992,10592,027.4,045.3,0.149,744.9,01.17,0.508
2014-04-10 02:43:00,2992E-2,5C000400,-0724,0992,10576,027.4,045.3,0.149,744.9,01.17,0.508
2014-04-10 02:44:00,3001E-2,5C000400,-0724,0993,10659,027.4,045.3,0.149,745.0,01.17,0.508
2014-04-10 02:45:00,2973E-2,5C000400,-0724,0992,10560,027.4,045.3,0.149,745.0,01.17,0.508
2014-04-10 02:46:00,2978E-2,5C000400,-0724,0992,10671,027.4,045.3,0.149,745.0,01.17,0.508
2014-04-10 02:47:00,3003E-2,5C000400,-0724,0992,10550,027.4,045.3,0.149,744.9,01.17,0.508
2014-04-10 02:48:00,3011E-2,5C000400,-0724,0992,10645,027.4,045.3,0.149,745.0,01.17,0.508
2014-04-10 02:49:00,3021E-2,5C000400,-0724,0991,10375,027.4,045.3,0.149,745.0,01.17,0.508
2014-04-10 02:50:00,2978E-2,5C000400,-0724,0992,10484,027.4,045.3,0.149,745.0,01.17,0.508
2014-04-10 02:51:00,2968E-2,5C000400,-0724,0992,10720,027.3,045.3,0.149,744.9,01.17,0.508
2014-04-10 02:52:00,3022E-2,5C000400,-0724,0991,10570,027.3,045.3,0.149,745.0,01.17,0.508
2014-04-10 02:53:00,2972E-2,5C000400,-0724,0992,10561,027.3,045.3,0.149,745.1,01.17,0.508
2014-04-10 02:54:00,2920E-2,5C000400,-0724,0991,10468,027.3,045.3,0.149,745.1,01.17,0.508
2014-04-10 02:55:00,3026E-2,5C000400,-0724,0991,10626,027.3,045.3,0.149,745.0,01.17,0.508
2014-04-10 02:56:00,2954E-2,5C000400,-0724,0992,10560,027.3,045.3,0.149,745.1,01.17,0.508
2014-04-10 02:57:00,3012E-2,5C000400,-0724,0994,10517,027.3,045.3,0.149,745.0,01.17,0.508
2014-04-10 02:58:00,3026E-2,5C000400,-0724,0991,10570,027.3,045.3,0.149,745.1,01.17,0.508
2014-04-10 02:59:00,2982E-2,5C000400,-0724,0992,10553,027.3,045.3,0.149,745.1,01.17,0.508
2014-04-10 03:00:00,2967E-2,5C000400,-0724,0991,10568,027.3,045.3,0.149,745.0,01.17,0.508
2014-04-10 03:01:00,3015E-2,5C000400,-0724,0991,10593,027.3,045.3,0.149,745.0,01.17,0.508
2014-04-10 03:02:00,2975E-2,5C000400,-0724,0992,10684,027.3,045.3,0.149,745.1,01.17,0.508
2014-04-10 03:03:00,3007E-2,5C000400,-0724,0992,10674,027.3,045.3,0.149,745.1,01.17,0.508
2014-04-10 03:04:00,3008E-2,5C000400,-0724,0993,10493,027.3,045.3,0.149,745.1,01.17,0.508
2014-04-10 03:05:00,3034E-2,5C000400,-0724,0992,10631,027.3,045.3,0.149,745.1,01.17,0.508
2014-04-10 03:06:00,3032E-2,5C000400,-0724,0993,10571,027.3,045.3,0.149,745.1,01.17,0.508
2014-04-10 03:07:00,3024E-2,5C000400,-0724,0991,10578,027.3,045.3,0.149,745.1,01.17,0.508
2014-04-10 03:08:00,3041E-2,5C000400,-0724,0992,10539,027.3,045.3,0.149,745.1,01.17,0.508
2014-04-10 03:09:00,3018E-2,5C000400,-0724,0993,10649,027.3,045.3,0.149,745.0,01.17,0.508
2014-04-10 03:10:00,2999E-2,5C000400,-0724,0992,10699,027.3,045.3,0.149,745.1,01.17,0.508
2014-04-10 03:11:00,2978E-2,5C000400,-0724,0993,10644,027.3,045.3,0.149,745.2,01.17,0.508
2014-04-10 03:12:00,2992E-2,5C000400,-0724,0993,10596,027.3,045.3,0.149,745.2,01.17,0.508
2014-04-10 03:13:00,2999E-2,5C000400,-0724,0993,10474,027.3,045.3,0.149,745.1,01.17,0.508
2014-04-10 03:14:00,3000E-2,5C000400,-0724,0992,10621,027.3,045.3,0.149,745.1,01.17,0.508
2014-04-10 03:15:00,3021E-2,5C000400,-0724,0992,10656,027.3,045.3,0.149,745.1,01.17,0.508
2014-04-10 03:16:00,2970E-2,5C000400,-0724,0993,10619,027.3,045.3,0.149,745.1,01.17,0.508
2014-04-10 03:17:00,2992E-2,5C000400,-0724,0993,10535,027.3,045.3,0.149,745.1,01.17,0.508
2014-04-10 03:18:00,3006E-2,5C000400,-0724,0994,10656,027.3,045.3,0.149,745.1,01.17,0.508
2014-04-10 03:19:00,2939E-2,5C000400,-0724,0993,10669,027.3,045.3,0.149,745.1,01.17,0.508
2014-04-10 03:20:00,3016E-2,5C000400,-0724,0992,10596,027.3,045.3,0.149,745.1,01.17,0.508
2014-04-10 03:21:00,3047E-2,5C000400,-0724,0993,10573,027.3,045.3,0.149,745.1,01.17,0.508
2014-04-10 03:22:00,3001E-2,5C000400,-0724,0993,10680,027.3,045.3,0.149,745.1,01.17,0.508
2014-04-10 03:23:00,3021E-2,5C000400,-0724,0993,10539,027.3,045.3,0.149,745.0,01.17,0.508
2014-04-10 03:24:00,3050E-2,5C000400,-0724,0992,10681,027.3,045.3,0.149,745.1,01.17,0.508
2014-04-10 03:25:00,2997E-2,5C000400,-0724,0993,10595,027.3,045.3,0.149,745.1,01.17,0.508
2014-04-10 03:26:00,3041E-2,5C000400,-0724,0993,10617,027.3,045.3,0.149,745.1,01.17,0.508
2014-04-10 03:27:00,3052E-2,5C000400,-0724,0993,10427,027.3,045.3,0.149,745.1,01.17,0.508
2014-04-10 03:28:00,3059E-2,5C000400,-0724,0994,10591,027.3,045.3,0.149,745.1,01.17,0.508
2014-04-10 03:29:00,3006E-2,5C000400,-0724,0992,10529,027.3,045.3,0.149,745.2,01.17,0.508
2014-04-10 03:30:00,3011E-2,5C000400,-0724,0994,10712,027.3,045.3,0.149,745.1,01.17,0.508
2014-04-10 03:31:00,3052E-2,5C000400,-0724,0994,10488,027.3,045.3,0.149,745.1,01.17,0.508
2014-04-10 03:32:00,3040E-2,5C000400,-0724,0993,10584,027.3,045.3,0.149,745.1,01.17,0.508
2014-04-10 03:33:00,3027E-2,5C000400,-0724,0994,10759,027.3,045.3,0.149,745.1,01.17,0.508
2014-04-10 03:34:00,3042E-2,5C000400,-0724,0994,10548,027.3,045.3,0.149,745.2,01.17,0.508
2014-04-10 03:35:00,3052E-2,5C000400,-0724,0993,10601,027.3,045.3,0.149,745.2,01.17,0.508
2014-04-10 03:36:00,3054E-2,5C000400,-0724,0992,10498,027.3,045.3,0.149,745.2,01.17,0.508
2014-04-10 03:37:00,3039E-2,5C000400,-0724,0994,10534,027.3,045.3,0.149,745.2,01.17,0.508
2014-04-10 03:38:00,3005E-2,5C000400,-0724,0994,10475,027.3,045.3,0.149,745.2,01.17,0.508
2014-04-10 03:39:00,3027E-2,5C000400,-0724,0993,10560,027.3,045.3,0.149,745.1,01.17,0.508
2014-04-10 03:40:00,3030E-2,5C000400,-0724,0994,10581,027.3,045.3,0.149,745.2,01.17,0.508
2014-04-10 03:41:00,3025E-2,5C000400,-0724,0994,10589,027.3,045.3,0.149,745.2,01.17,0.508
2014-04-10 03:42:00,3048E-2,5C000400,-0724,0993,10628,027.3,045.3,0.149,745.2,01.17,0.508
2014-04-10 03:43:00,3034E-2,5C000400,-0724,0993,10558,027.3,045.3,0.149,745.1,01.17,0.508
2014-04-10 03:44:00,3037E-2,5C000400,-0724,0994,10574,027.3,045.3,0.149,745.1,01.17,0.508
2014-04-10 03:45:00,3026E-2,5C000400,-0724,0994,10482,027.3,045.3,0.149,745.1,01.17,0.508
2014-04-10 03:46:00,3060E-2,5C000400,-0724,0994,10563,027.3,045.3,0.149,745.1,01.17,0.508
2014-04-10 03:47:00,3084E-2,5C000400,-0724,0994,10563,027.3,045.3,0.149,745.1,01.17,0.508
2014-04-10 03:48:00,3043E-2,5C000400,-0724,0994,10610,027.3,045.3,0.149,745.1,01.17,0.508
2014-04-10 03:49:00,3058E-2,5C000400,-0724,0995,10501,027.3,045.3,0.149,745.1,01.17,0.508
2014-04-10 03:50:00,3024E-2,5C000400,-0724,0994,10605,027.3,045.3,0.149,745.1,01.17,0.508
2014-04-10 03:51:00,3076E-2,5C000400,-0724,0994,10540,027.3,045.3,0.149,745.1,01.17,0.508
2014-04-10 03:52:00,3040E-2,5C000400,-0724,0993,10741,027.3,045.3,0.149,745.0,01.17,0.508
2014-04-10 03:53:00,3025E-2,5C000400,-0724,0993,10429,027.3,045.3,0.149,745.1,01.17,0.508
2014-04-10 03:54:00,3024E-2,5C000400,-0724,0994,10513,027.3,045.3,0.149,745.1,01.17,0.508
2014-04-10 03:55:00,3105E-2,5C000400,-0724,0994,10563,027.3,045.3,0.149,745.1,01.17,0.508
2014-04-10 03:56:00,3054E-2,5C000400,-0724,0994,10436,027.3,045.3,0.150,745.1,01.17,0.508
2014-04-10 03:57:00,3057E-2,5C000400,-0724,0994,10507,027.3,045.3,0.149,745.1,01.17,0.508
2014-04-10 03:58:00,3066E-2,5C000400,-0724,0994,10649,027.3,045.3,0.149,745.0,01.17,0.508
2014-04-10 03:59:00,3041E-2,5C000400,-0724,0994,10430,027.3,045.3,0.149,745.0,01.17,0.508
2014-04-10 04:00:00,3054E-2,5C000400,-0724,0994,10621,027.2,045.3,0.150,745.0,01.17,0.508
2014-04-10 04:01:00,3100E-2,5C000400,-0724,0995,10673,027.3,045.3,0.149,745.0,01.17,0.508
2014-04-10 04:02:00,3092E-2,5C000400,-0724,0994,10693,027.2,045.3,0.149,745.0,01.17,0.508
2014-04-10 04:03:00,3068E-2,5C000400,-0724,0995,10611,027.2,045.3,0.150,745.0,01.17,0.508
2014-04-10 04:04:00,3092E-2,5C000400,-0724,0995,10665,027.2,045.3,0.150,745.1,01.17,0.508
2014-04-10 04:05:00,3056E-2,5C000400,-0724,0995,10659,027.3,045.3,0.150,745.0,01.17,0.508
2014-04-10 04:06:00,3109E-2,5C000400,-0724,0994,10642,027.2,045.3,0.150,745.0,01.17,0.508
2014-04-10 04:07:00,3099E-2,5C000400,-0724,0994,10603,027.2,045.3,0.150,745.0,01.17,0.508
2014-04-10 04:08:00,3049E-2,5C000400,-0724,0993,10663,027.2,045.3,0.150,745.0,01.17,0.508
2014-04-10 04:09:00,3091E-2,5C000400,-0724,0994,10638,027.2,045.3,0.150,745.0,01.17,0.508
2014-04-10 04:10:00,3024E-2,5C000400,-0724,0994,10538,027.2,045.3,0.150,745.0,01.17,0.508
2014-04-10 04:11:00,3067E-2,5C000400,-0724,0995,10327,027.2,045.3,0.150,745.1,01.17,0.508
2014-04-10 04:12:00,3087E-2,5C000400,-0724,0994,10518,027.2,045.3,0.150,745.0,01.17,0.508
2014-04-10 04:13:00,3103E-2,5C000400,-0724,0994,10474,027.2,045.3,0.150,745.0,01.17,0.508
2014-04-10 04:14:00,3053E-2,5C000400,-0724,0995,10504,027.2,045.3,0.150,745.0,01.17,0.508
2014-04-10 04:15:00,3064E-2,5C000400,-0724,0994,10540,027.2,045.3,0.150,745.1,01.17,0.508
2014-04-10 04:16:00,3105E-2,5C000400,-0724,0996,10550,027.2,045.3,0.150,745.0,01.17,0.508
2014-04-10 04:17:00,3058E-2,5C000400,-0724,0994,10482,027.2,045.3,0.150,745.0,01.17,0.508
2014-04-10 04:18:00,3099E-2,5C000400,-0724,0995,10530,027.2,045.3,0.150,745.0,01.17,0.508
2014-04-10 04:19:00,3092E-2,5C000400,-0724,0995,10555,027.2,045.3,0.150,745.0,01.17,0.508
2014-04-10 04:20:00,3079E-2,5C000400,-0724,0994,10424,027.2,045.3,0.150,745.0,01.17,0.508